Location: Albuquerque Trailhead
(34.7934°N, 106.3736°W)
Time: 15:05:55
(UTC+00:00)

STARLINK-6079 - Visible Passes

Search period start: 14 September 2024 00:00
Search period end: 24 September 2024 00:00
Orbit: 558 x 560 km, 43.0° (Epoch: 14 September)

Date Brightness Start Highest point End Pass type
(mag) Time Alt. Az. Time Alt. Az. Time Alt. Az.
14 Sep ? 02:04:17 10° W 02:08:10 34° NNW 02:12:03 10° NE visible
14 Sep ? 03:45:58 10° NW 03:48:14 22° NNW 03:48:14 22° NNW visible
15 Sep ? 02:01:34 10° WNW 02:05:18 30° N 02:09:04 10° NE visible
15 Sep ? 03:43:03 10° NW 03:45:16 23° NNW 03:45:16 23° NNW visible
16 Sep ? 01:58:48 10° WNW 02:02:27 27° N 02:06:06 10° NE visible
16 Sep ? 03:40:04 10° NW 03:42:16 24° NNW 03:42:16 24° NNW visible
17 Sep ? 01:56:00 10° WNW 01:59:35 26° N 02:03:11 10° NE visible
17 Sep ? 03:37:01 10° NW 03:39:13 25° NNW 03:39:13 25° NNW visible
18 Sep ? 01:53:07 10° NW 01:56:42 26° N 02:00:18 10° ENE visible
18 Sep ? 03:33:55 10° NW 03:36:09 27° NW 03:36:09 27° NW visible
19 Sep ? 01:50:08 10° NW 01:53:47 27° N 01:57:18 11° ENE visible
19 Sep ? 03:30:48 10° WNW 03:33:05 30° NW 03:33:05 30° NW visible
20 Sep ? 01:47:06 10° NW 01:50:50 29° N 01:54:14 12° ENE visible
20 Sep ? 03:27:39 10° WNW 03:30:02 32° NW 03:30:02 32° NW visible
21 Sep ? 01:43:59 10° NW 01:47:50 34° NNE 01:51:12 13° ENE visible
21 Sep ? 03:24:32 10° WNW 03:27:00 34° WNW 03:27:00 34° WNW visible
22 Sep ? 01:40:48 10° NW 01:44:48 40° NNE 01:48:12 13° E visible
22 Sep ? 03:21:26 10° WNW 03:24:00 33° W 03:24:00 33° W visible
23 Sep ? 01:37:35 10° NW 01:41:42 50° NNE 01:45:15 13° E visible
23 Sep ? 03:18:25 10° WNW 03:21:04 29° WSW 03:21:04 29° WSW visible
